Hourly Data Report for October 06, 2017

All times are specified in Local Standard Time (LST). Add 1 hour to adjust for Daylight Saving Time where and when it is observed.

KITCHENER/WATERLOO
ONTARIO

43°27'39.000" N
80°22'43.000" W
321.60 m
6144239
71368
YKF

Download Data

Hourly Data (October 2017)
Hourly Data Report for October 6, 2017
Temp Definition
°C
Dew Point Temp Definition
°C
Rel Hum Definition
%
Wind Dir Definition
10's deg

Wind Spd Definition
km/h
Visibility Definition
km
Stn Press Definition
kPa
Hmdx Definition


Wind Chill Definition


Weather Definition


TIME
00:00 Legend Double Dagger 12.5 10.7 89 LegendMM 4 16.1 98.06     LegendNANA
01:00 Legend Double Dagger 14.7 9.8 72 26 5 16.1 98.06     LegendNANA
02:00 Legend Double Dagger 14.6 10.0 74 21 5 16.1 98.01     LegendNANA
03:00 Legend Double Dagger 12.5 11.6 94 12 4 16.1 98.00     LegendNANA
04:00 Legend Double Dagger 12.2 11.5 95 LegendMM 4 16.1 98.05     LegendNANA
05:00 Legend Double Dagger 12.9 11.8 93   0 16.1 98.06     Rain
06:00 Legend Double Dagger 12.7 12.0 95   0 16.1 98.06     Rain
07:00 Legend Double Dagger 12.3 11.5 95 26 4 16.1 98.11     LegendNANA
08:00 Legend Double Dagger 13.9 12.3 90 24 5 16.1 98.11     LegendNANA
09:00 Legend Double Dagger 15.0 12.9 87 31 5 16.1 98.09     LegendNANA
10:00 Legend Double Dagger 16.5 12.3 76 LegendMM 4 16.1 98.10     LegendNANA
11:00 Legend Double Dagger 17.7 12.7 72   0 16.1 98.07     LegendNANA
12:00 Legend Double Dagger 17.9 12.2 69 30 8 16.1 98.05     LegendNANA
13:00 Legend Double Dagger 18.4 12.3 67 LegendMM 5 16.1 98.00     LegendNANA
14:00 Legend Double Dagger 18.7 12.1 65   0 16.1 97.93     LegendNANA
15:00 Legend Double Dagger 19.0 12.5 65 33 8 11.3 97.89     LegendNANA
16:00 Legend Double Dagger 18.5 13.8 74 2 5 16.1 97.87     LegendNANA
17:00 Legend Double Dagger 18.1 14.4 79 8 4 16.1 97.84     LegendNANA
18:00 Legend Double Dagger 16.8 14.2 84 10 8 16.1 97.80     LegendNANA
19:00 Legend Double Dagger 16.6 14.4 86   0 16.1 97.83     LegendNANA
20:00 Legend Double Dagger 16.9 14.2 84 11 13 16.1 97.85     LegendNANA
21:00 Legend Double Dagger 15.6 14.1 90 11 11 11.3 97.83     LegendNANA
22:00 Legend Double Dagger 14.8 14.2 96 10 11 4.8 97.83     Fog
23:00 Legend Double Dagger 14.7 14.6 99 9 8 1.2 97.76     Fog

Notes on Data Quality.

Legend

  • E = Estimated
  • M = Missing
  • NA = Not Available
  • ‡ = Partner data that is not subject to review by the National Climate Archives
Date modified: